{"data":{"norad_id":62060,"intl_designator":"2024-217D","name":"STARLINK-11473 [DTC]","alt_names":[],"object_type":"PAYLOAD","status":"ACTIVE","operator":null,"country":"US","launch_date":"2024-11-24","launch_site_code":"AFWTR","launch_vehicle":null,"mission":null,"orbit_class":"UNKNOWN","rcs_meters":null,"size_class":null,"mass_kg":null,"dimensions":null,"purposes":["comms"],"wikipedia_slug":null,"has_3d_model":false,"image_url":null,"decayed_at":null,"tle_current":{"epoch":"2026-05-25T04:17:08.543040Z","epoch_age_seconds":69692,"freshness":"FRESH","line1":"1 62060U 24217D   26145.17857110  .00244699  00000+0  19591-2 0  9998","line2":"2 62060  53.1565  54.4398 0000941 109.4467 250.6652 15.69790094 87189","mean_motion":15.69790094,"eccentricity":9.41e-5,"inclination_deg":53.1565,"raan_deg":54.4398,"arg_perigee_deg":109.4467,"mean_anomaly_deg":250.6652,"bstar":0.0019591,"rev_number":8718,"period_min":91.732009617332,"perigee_km":358.86355038308,"apogee_km":360.13157320761,"semimajor_km":6737.6345617953,"source":"CELESTRAK","updated_at":"2026-05-25T13:38:19.530048Z"}}}